Starlink 6341

operational
NORAD ID: 56786 Int'l Des: 2023-078 Owner: SPXS Country: US Constellation: starlink
LEOCIRCULAR

关于 Starlink 6341

正在加载描述...

实时位置

正在加载3D地球...

即将过境

高度历史

Altitude vs Time

uPlot chart will show altitude changes over time

两行轨道根数

1 56786U 23078V 25306.38844703 -.00000216 00000-0 -10276-4 0 9996
2 56786 69.9981 285.4806 0002914 271.1478 88.9348 14.98329672134105
Epoch: Nov 2, 2025 • Age: 35 hours

当前状态

高度 577.3 km
速度 7.57 km/s
星下点 34.46°N, 58.25°W
发射日期 May 31, 2023
运行时间 2.4 years
类型 internet

技术详情

分类 Payload
质量 305.00 kg
干质量 290.00 kg
总质量 305.00 kg
长度 0.20 m
直径 2.80 m
跨度 9.00 m
形状 Box + pan
制造商 SPXS
平台类型 Starlink
阶段状态 In Orbit
所有者/国家 SPXS/US

大型星座

Loading constellations...